User: anonymous   Login
Location: Drayton Valley
(53.2170°N, 114.9830°W)
Time: 18:07:01
(UTC-06:00)
Language:

MOZ.5/SAFIR/RUBIN 5/SL-8 - Orbit

View from above orbital plane
View from above orbital plane
View from above satellite
View from above satellite

Ground track
Ground track

The orbit data is extracted from the following two-line orbital elements,

1 28898U 05043G   15184.55561380  .00000152  00000-0  40891-4 0  9993
2 28898 097.8474 358.2849 0018500 276.2385 083.6709 14.59925052515558
Epoch (UTC): 03 July 2015 13:20:05
Eccentricity: 0.0018500
inclination: 97.8474°
perigee height: 680 km
apogee height: 706 km
right ascension of ascending node: 358.2849°
argument of perigee: 276.2385°
revolutions per day: 14.59925052
mean anomaly at epoch: 83.6709°
orbit number at epoch: 51555

The dashed part of the orbit path shows where the satellite is in the earth's shadow,  

DLR